Showing default

IRIDIUM 128, 42811

Orbit data source: Space-Track

IRIDIUM 128, 42811 is a payload satellite owned by Iridium (US) in LEO that was launched on Sun, 25 Jun 2017 UTC via an FALCON 9 launch vehicle from the Air Force Western Test Range (AFWTR). Payload-class satellites include a variety of spacecraft equipped with specific instruments for various scientific and technological missions. These include communications satellites like Starlink; space stations such as the ISS; scientific satellites like the Hubble; Earth observation satellites from companies like Planet Labs, Umbra, and HawkEye 360; GPS; miniature CubeSats for education and research; and military/defense satellites.

Loading next visibility...
Identifier
42811, 2017-039J
Orbit
LEO
Country
Flag of USUS
Related business
Manufacturer
OATK SSG Gilbert
Mission
Operational Commercial Communications
Bus & Motor
ELITEBUS, Unknown motor
Mass
860 kg wet, 700 kg dry
Launch date (UTC)
2017-06-25 (9 years ago)
Launch vehicle
FALCON 9
Launch site
Air Force Western Test Range (AFWTR)
Object type
Payload
Rocket body
Debris
Shape & HBR
Trap Box + 2 Pan, 4.8 m
Radar Cross Section
10.154 m², Large (>1 m²)

Expand to show TLE details & history
Last TLE update: 4 hours ago

TLE from 4 hours ago
0 IRIDIUM 128
1 42811U 17039J   26035.50943885  .00000326  00000-0  10945-3 0  9997
2 42811  86.3923  80.6366 0002018  89.5359 270.6068 14.34216050450967
Epoch: 2026-02-04T12:13Z
TLE epoch observation values (Epoch: 2026-02-04T12:13:35.516Z)
Latitude
-0.00004°
Longitude
122.56362°
Altitude
780.709 km
Speed
7.463 km/s
True Right ascension
05h 22m 32s
True Declination
0° 00' 00"
Sunlit
Object was in full shadow at epoch
Visualization orbit readout
Latitude
Unknown
Longitude
Unknown
Altitude
Unknown
Speed
Unknown
Apparent Right ascension
Unknown
Apparent Declination
Unknown
Sunlit
N/A
Visualization observer readout
Local Sidereal Time
18:32:27
Azimuth
Unknown
Elevation
Unknown
Doppler factor
Unknown
Orbital elements
Apogee altitude
776.081 km
Perigee altitude
773.194 km
Semi-major axis
7,152.774 km
Eccentricity
0.0002
Inclination
86.3923°
RAAN
80.6366°
Arg. of periapsis
89.5359°
True anomaly
270.58368°
Mean anomaly
270.6068°
Eccentric anomaly
270.59524°
Mean motion
3.58783 °/min
Orbital period
100.34 mins
BSTAR
0.00010945
Loading maneuver chart data...
Computing Atmospheric mass density...
Loading historical data...
Loading historical data...
Loading historical data...
Loading historical data...
Loading historical data...
Loading historical data...
Loading historical data...

Documentation

Showing up to 5 results
|